[[{"header":{"parameterUnit":"m.s-1","parameterCategory":2,"la1":30.2991,"la2":30.254,"lo1":-89.0895,"lo2":-89.0444,"dy":0.0017,"dx":0.0017,"nx":28,"ny":28,"refTime":"2025-01-11T09:00:00:Z","depth":"0","parameterNumber":2,"parameterNumberName":"U-component_of_CURRENTS"},"data":[0,0,0,0,0,0,0,0,0,0,0,0,0,0,0,0,0,0,0,0,0,0,0,0,0,0,0,0,0,0,0,0,0,0,0,0,0,0,0,0,0,0,0,0,0,0,0,0,0,0,0,0,0,0,0,0,0,0,0.4229,0.423,0,0.4295,0.4296,0.4296,0.4328,0.4329,0.4329,0.433,0.4318,0.4317,0.4316,0,0,0,0,0,0,0,0,0,0,0,0,0,0.4115,0.4116,0.4229,0.423,0.4232,0.4295,0.4296,0.4296,0.4328,0.4329,0.4329,0.433,0.4318,0.4317,0.4316,0,0,0,0,0,0,0,0,0,0,0,0,0,0.4166,0.4117,0.4229,0.4259,0.4263,0.4295,0.4296,0.4296,0.4328,0.4329,0.433,0.433,0.4318,0.4317,0.4316,0.4296,0,0,0.4313,0.4312,0,0,0,0,0,0,0,0,0.4163,0.417,0.4253,0.4257,0.4261,0.4309,0.4251,0.4294,0.4328,0.4298,0.433,0.433,0.431,0.431,0.4315,0.4295,0.4295,0.4313,0.4312,0.4312,0.4311,0,0,0,0,0,0,0,0.4159,0.4167,0.425,0.4255,0.426,0.4264,0.4272,0.4259,0.4294,0.4301,0.4304,0.432,0.4311,0.4316,0.4315,0.4294,0.4313,0.4312,0.4311,0.4311,0.432,0.4321,0,0,0,0,0,0,0.4162,0.4164,0.4248,0.4253,0.4219,0.4266,0.4275,0.4289,0.4296,0.43,0.4319,0.4321,0.4317,0.4316,0.4314,0.4302,0.4312,0.431,0.431,0.4319,0.432,0.4321,0,0,0,0,0,0,0.4159,0.4169,0.4246,0.4214,0.4224,0.4268,0.4283,0.429,0.43,0.4312,0.4313,0.4324,0.4318,0.4316,0.4319,0.4302,0.431,0.4309,0.4318,0.432,0.4321,0.427,0,0,0,0,0,0,0.4155,0.4167,0.4172,0.4214,0.4227,0.4265,0.4284,0.4291,0.431,0.4313,0.4316,0.4316,0.4318,0.4321,0.4318,0.43,0.4308,0.4317,0.4319,0.432,0.4271,0.427,0.4269,0,0,0,0,0,0.4151,0.4151,0.4172,0.4182,0.4234,0.4266,0.4271,0.4301,0.431,0.4312,0.4324,0.4316,0.433,0.432,0.4317,0.4298,0.4316,0.4318,0.432,0.4271,0.427,0.4269,0,0,0,0,0,0,0.4095,0.4157,0.4179,0.4197,0.4232,0.4273,0.4278,0.4299,0.431,0.4311,0.4318,0.4319,0.432,0.4324,0.4313,0.4314,0.4325,0.4326,0.4289,0.4288,0.4287,0.4299,0.4307,0,0,0,0,0,0.4089,0.4109,0.4166,0.4177,0.4196,0.4236,0.4252,0.4274,0.4296,0.4302,0.4302,0.4313,0.4325,0.4318,0.4329,0.4313,0.4349,0.4307,0.4306,0.4305,0.4318,0.4361,0.4365,0.4328,0.4328,0.4328,0,0,0.4067,0.4106,0.4115,0.4167,0.4195,0.4205,0.4245,0.4268,0.4272,0.4295,0.4285,0.4306,0.4326,0.4323,0.4322,0.4319,0.4335,0.4308,0.4306,0.432,0.4364,0.4367,0.437,0.4329,0.4329,0.4329,0,0,0.4024,0.4073,0.407,0.4101,0.4152,0.4182,0.4189,0.4228,0.4244,0.4247,0.4275,0.4294,0.4287,0.4307,0.4316,0.4317,0.4337,0.4317,0.4303,0.4344,0.4346,0.435,0.4397,0.4405,0.4305,0.4304,0.4304,0,0.3992,0.4011,0.407,0.4076,0.4106,0.4167,0.4171,0.4189,0.4219,0.4243,0.4238,0.4285,0.4283,0.4312,0.431,0.431,0.4346,0.4295,0.434,0.4344,0.4348,0.4396,0.4405,0.4302,0.4302,0.4303,0.4303,0,0.3942,0.3967,0.397,0.4005,0.4037,0.4057,0.4108,0.4129,0.4157,0.4186,0.4228,0.4246,0.4285,0.4277,0.4283,0.4316,0.4337,0.4338,0.4335,0.4348,0.4399,0.4409,0.4299,0.43,0.4301,0.4301,0,0,0.3847,0.3923,0.3921,0.3949,0.4015,0.4038,0.406,0.4116,0.416,0.4168,0.4224,0.4225,0.4265,0.4282,0.4302,0.432,0.4359,0.4332,0.4335,0.4366,0.4463,0.446,0.4471,0.4365,0.4367,0.4368,0.4485,0,0.3794,0.3807,0.3858,0.3874,0.3899,0.3982,0.4011,0.4069,0.4133,0.4196,0.4234,0.4292,0.4259,0.43,0.4305,0.4375,0.4386,0.4329,0.4459,0.4463,0.4447,0.4483,0.4404,0.45,0.4495,0.4497,0.4498,0,0.3723,0.3758,0.3771,0.3866,0.3884,0.3896,0.4011,0.4046,0.4156,0.4219,0.4282,0.4337,0.439,0.436,0.4441,0.441,0.4426,0.4454,0.446,0.4485,0.448,0.449,0.452,0.4464,0.4515,0.4513,0.4512,0,0.3649,0.3699,0.3722,0.3746,0.3844,0.3873,0.393,0.4046,0.4117,0.4253,0.4331,0.4403,0.4468,0.4496,0.454,0.4505,0.4637,0.4599,0.4606,0.4607,0.4582,0.4578,0.4563,0.4638,0.4637,0.4637,0.4637,0,0.3593,0.3605,0.3689,0.3699,0.3745,0.383,0.3905,0.3994,0.4138,0.4223,0.4334,0.4428,0.4505,0.4586,0.4591,0.465,0.4677,0.4625,0.4642,0.4563,0.4556,0.454,0.4506,0.4641,0.464,0.4639,0.4639,0,0.3508,0.3562,0.3589,0.368,0.3711,0.374,0.388,0.3939,0.41,0.4225,0.4276,0.4472,0.4598,0.4668,0.4762,0.4731,0.4681,0.4782,0.4692,0.4694,0.4624,0.4591,0.4416,0.427,0.4816,0.4817,0.4817,0,0.3468,0.3474,0.3552,0.3567,0.3603,0.3671,0.3721,0.3895,0.3979,0.4236,0.4287,0.4489,0.4612,0.4788,0.4818,0.4875,0.4708,0.4795,0.4694,0.4628,0.4603,0.4381,0.4253,0.4646,0.4645,0.4644,0.4644,0,0.3389,0.3413,0.3437,0.3475,0.3511,0.3561,0.3654,0.3729,0.393,0.4068,0.4258,0.4399,0.4635,0.4711,0.4826,0.4832,0.4615,0.4781,0.4734,0.4494,0.423,0.4096,0.457,0.4637,0.4638,0.4638,0.4639,0.4639,0.3318,0.3309,0.3339,0.3362,0.3401,0.3428,0.3434,0.3572,0.3701,0.3886,0.4114,0.4292,0.4565,0.4753,0.4723,0.47,0.4574,0.4597,0.4575,0.4363,0.4167,0.4633,0.47,0.4701,0.4702,0.4702,0.4703,0,0.3214,0.3213,0.3228,0.3242,0.3224,0.3289,0.3361,0.336,0.3454,0.3711,0.3885,0.42,0.4371,0.4535,0.467,0.4546,0.4274,0.4428,0.4111,0.4,0.4474,0.4416,0.4397,0.4397,0.4397,0.4397,0.4397,0.4397,0.3157,0.3116,0.3121,0.3054,0.3058,0.2994,0.2995,0.3046,0.3195,0.339,0.3587,0.3819,0.4303,0.4643,0.4628,0.4487,0.4112,0.3951,0.3853,0.4265,0.4278,0.429,0.4226,0.4167,0.4167,0.3222,0.3216,0.3211]},{"header":{"parameterUnit":"m.s-1","parameterCategory":2,"la1":30.2991,"la2":30.254,"lo1":-89.0895,"lo2":-89.0444,"dy":0.0017,"dx":0.0017,"nx":28,"ny":28,"refTime":"2025-01-11T09:00:00:Z","depth":"0","parameterNumber":3,"parameterNumberName":"V-component_of_CURRENTS"},"data":[0,0,0,0,0,0,0,0,0,0,0,0,0,0,0,0,0,0,0,0,0,0,0,0,0,0,0,0,0,0,0,0,0,0,0,0,0,0,0,0,0,0,0,0,0,0,0,0,0,0,0,0,0,0,0,0,0,0,0.0096,0.0095,0,-0.0024,-0.0025,-0.0027,-0.0121,-0.0122,-0.0122,-0.0123,-0.0218,-0.022,-0.0223,0,0,0,0,0,0,0,0,0,0,0,0,0,0.0115,0.0115,0.0096,0.0095,0.0094,-0.0023,-0.0025,-0.0028,-0.0121,-0.0122,-0.0122,-0.0123,-0.0218,-0.022,-0.0223,0,0,0,0,0,0,0,0,0,0,0,0,0,0.0058,0.0116,0.0096,0.0036,0.003,-0.0023,-0.0026,-0.0028,-0.0121,-0.0122,-0.0123,-0.0123,-0.0217,-0.022,-0.0223,-0.0227,0,0,-0.0233,-0.0234,0,0,0,0,0,0,0,0,0.0062,0.0057,0.0046,0.004,0.0033,-0.0054,-0.0054,-0.0092,-0.0121,-0.0069,-0.0123,-0.0124,-0.0158,-0.0166,-0.0194,-0.0232,-0.0236,-0.0233,-0.0235,-0.0236,-0.0237,0,0,0,0,0,0,0,0.0066,0.0061,0.0044,0.0045,0.0037,-0.0028,-0.0036,-0.0063,-0.0111,-0.0073,-0.0079,-0.0085,-0.0162,-0.019,-0.0196,-0.0237,-0.0233,-0.0236,-0.0237,-0.0239,-0.0285,-0.0284,0,0,0,0,0,0,0.0098,0.0066,0.0048,0.0041,0.0051,-0.0027,-0.0037,-0.0029,-0.0111,-0.0123,-0.0084,-0.0089,-0.0185,-0.0193,-0.02,-0.0188,-0.0236,-0.0239,-0.0241,-0.0285,-0.0284,-0.0284,0,0,0,0,0,0,0.0099,0.0098,0.0053,0.0053,0.0043,-0.0025,-0.0017,-0.0031,-0.0054,-0.0119,-0.0132,-0.0091,-0.0186,-0.0195,-0.0219,-0.0193,-0.024,-0.0243,-0.0286,-0.0285,-0.0284,-0.0178,0,0,0,0,0,0,0.01,0.0099,0.011,0.0056,0.0045,0.0039,-0.0016,-0.0033,-0.0054,-0.0061,-0.0128,-0.0139,-0.0187,-0.0214,-0.0222,-0.0198,-0.0246,-0.0287,-0.0286,-0.0284,-0.0182,-0.0173,-0.0166,0,0,0,0,0,0.0101,0.0134,0.0112,0.0109,0.0065,0.004,0.0028,-0.0028,-0.0053,-0.0053,-0.0105,-0.0137,-0.0212,-0.0216,-0.0226,-0.0202,-0.0287,-0.0286,-0.0284,-0.0186,-0.0175,-0.0166,0,0,0,0,0,0,0.0154,0.0126,0.0101,0.0124,0.009,0.0027,0.0024,-0.0013,-0.0057,-0.006,-0.0129,-0.0143,-0.0156,-0.0193,-0.0196,-0.0213,-0.0254,-0.0254,-0.0176,-0.0166,-0.0158,-0.0139,-0.0248,0,0,0,0,0,0.0172,0.0183,0.0142,0.0159,0.015,0.0088,0.007,0.0037,-0.0006,-0.0027,-0.0076,-0.0123,-0.0158,-0.0172,-0.0212,-0.0215,-0.0262,-0.0207,-0.0199,-0.0191,-0.0183,-0.0236,-0.0231,-0.0279,-0.0279,-0.0279,0,0,0.0194,0.0183,0.0187,0.0169,0.0137,0.014,0.0075,0.0066,0.0063,-0.0026,-0.0042,-0.0095,-0.0155,-0.0168,-0.0175,-0.0193,-0.0203,-0.019,-0.0183,-0.0178,-0.0234,-0.0229,-0.0225,-0.0278,-0.0278,-0.0278,0,0,0.025,0.024,0.0264,0.0248,0.022,0.0187,0.0193,0.0141,0.0113,0.0092,0.0026,-0.0011,-0.0063,-0.0105,-0.0132,-0.0099,-0.016,-0.0107,-0.0044,-0.0095,-0.0091,-0.0089,-0.0139,-0.0142,-0.0099,-0.0098,-0.0098,0,0.0274,0.0304,0.0266,0.0286,0.0284,0.0219,0.0245,0.0211,0.0154,0.0141,0.0106,0.0016,-0.0033,-0.0056,-0.0051,-0.0078,-0.012,-0.0074,-0.0083,-0.0081,-0.0081,-0.0134,-0.0138,-0.0093,-0.0094,-0.0094,-0.0095,0,0.0343,0.0363,0.0382,0.0384,0.0378,0.0393,0.0351,0.0337,0.0297,0.0255,0.0219,0.0134,0.0083,0.0061,0.0014,0.0001,-0.0034,-0.0068,-0.0103,-0.0069,-0.0128,-0.0134,-0.0085,-0.0087,-0.0089,-0.009,0,0,0.0402,0.0425,0.0429,0.045,0.0435,0.0443,0.0448,0.0431,0.0441,0.0367,0.0362,0.0281,0.0226,0.0191,0.0123,0.0076,0.0041,0.0016,0.0011,-0.0026,-0.0071,-0.0093,-0.0103,0.0006,0.0005,0.0005,-0.0113,0,0.0461,0.0527,0.0517,0.0576,0.0608,0.0566,0.0575,0.0552,0.0518,0.0497,0.0399,0.0369,0.0279,0.0259,0.0196,0.0082,0.0029,0.0076,-0.0107,-0.0112,-0.0129,-0.0109,-0.0085,-0.0187,-0.012,-0.0121,-0.0122,0,0.0528,0.0566,0.0636,0.0678,0.0687,0.0706,0.0722,0.0728,0.0681,0.0652,0.0596,0.0513,0.0431,0.0351,0.0171,0.0205,0.0081,-0.0018,-0.0025,-0.0086,-0.0145,-0.0213,-0.0203,-0.0443,-0.0133,-0.0132,-0.0131,0,0.0589,0.065,0.0712,0.0726,0.0757,0.0777,0.0791,0.0772,0.0805,0.0757,0.0766,0.0635,0.0584,0.0411,0.0203,0.0187,0.0,-0.0049,-0.019,-0.0194,-0.0229,-0.0235,-0.0464,-0.0175,-0.0175,-0.0175,-0.0174,0,0.0659,0.0709,0.0747,0.0782,0.0864,0.0854,0.0933,0.0923,0.0934,0.0989,0.0856,0.0865,0.0598,0.0455,0.0248,0.0017,0.0031,-0.0175,-0.0222,-0.0192,-0.0192,-0.0449,-0.0608,-0.0179,-0.0178,-0.0177,-0.0176,0,0.0715,0.0735,0.0818,0.087,0.0897,0.0957,0.1049,0.1106,0.1096,0.1165,0.1158,0.1038,0.0855,0.0579,0.0296,0.0094,-0.0284,-0.0224,-0.017,-0.0208,-0.0562,-0.0715,-0.1021,-0.1123,-0.04,-0.0401,-0.0402,0,0.0749,0.0796,0.0894,0.0958,0.0987,0.1081,0.115,0.1184,0.1269,0.1284,0.1332,0.1175,0.1109,0.0682,0.0286,-0.0085,-0.0328,-0.0317,-0.0347,-0.0576,-0.0783,-0.0892,-0.0962,-0.0359,-0.036,-0.036,-0.0361,0,0.0817,0.0846,0.0916,0.1056,0.1146,0.1269,0.1379,0.1478,0.1525,0.1585,0.1642,0.159,0.1177,0.083,0.0302,0.0018,-0.0497,-0.0338,-0.0594,-0.0785,-0.0902,-0.1021,-0.0295,-0.0365,-0.0364,-0.0364,-0.0364,-0.0364,0.0863,0.0929,0.1027,0.1164,0.1278,0.1441,0.1575,0.1707,0.1862,0.1995,0.1914,0.1917,0.1362,0.0657,0.0223,-0.0533,-0.0558,-0.0738,-0.091,-0.1,-0.1093,-0.0372,-0.0481,-0.0481,-0.0481,-0.0482,-0.0482,0,0.0919,0.1002,0.1133,0.1299,0.1447,0.1498,0.1717,0.1876,0.2092,0.2218,0.2289,0.2054,0.1364,0.0635,-0.0382,-0.0955,-0.1173,-0.1291,-0.145,-0.1496,-0.0864,-0.0854,-0.1025,-0.1024,-0.1024,-0.1024,-0.1024,-0.1023,0.095,0.1078,0.1155,0.1409,0.154,0.1767,0.1912,0.2146,0.2318,0.253,0.2578,0.2574,0.2032,0.0101,-0.1188,-0.1512,-0.1921,-0.205,-0.2243,-0.1827,-0.1788,-0.1751,-0.1776,-0.2138,-0.214,-0.2759,-0.2766,-0.2771]}],[{"header":{"parameterUnit":"m.s-1","parameterCategory":2,"la1":30.2991,"la2":30.254,"lo1":-89.0895,"lo2":-89.0444,"dy":0.0017,"dx":0.0017,"nx":28,"ny":28,"refTime":"2025-01-11T09:00:00:Z","depth":"2","parameterNumber":2,"parameterNumberName":"U-component_of_CURRENTS"},"data":[0,0,0,0,0,0,0,0,0,0,0,0,0,0,0,0,0,0,0,0,0,0,0,0,0,0,0,0,0,0,0,0,0,0,0,0,0,0,0,0,0,0,0,0,0,0,0,0,0,0,0,0,0,0,0,0,0,0,0.3804,0.3805,0,0.3896,0.3897,0.3898,0.3947,0.3947,0.3948,0.3948,0.3972,0.3972,0.3972,0,0,0,0,0,0,0,0,0,0,0,0,0,0.3683,0.3685,0.3804,0.3806,0.3807,0.3896,0.3897,0.3898,0.3947,0.3947,0.3948,0.3948,0.3972,0.3972,0.3973,0,0,0,0,0,0,0,0,0,0,0,0,0,0.375,0.3685,0.3804,0.3843,0.3848,0.3895,0.3897,0.3898,0.3947,0.3947,0.3948,0.3948,0.3971,0.3972,0.3973,0.397,0,0,0.3974,0.3975,0,0,0,0,0,0,0,0,0.3746,0.3754,0.3836,0.384,0.3846,0.3912,0.3863,0.3919,0.3947,0.3908,0.3948,0.3948,0.3946,0.3949,0.3964,0.3971,0.3972,0.3975,0.3975,0.3975,0.3975,0,0,0,0,0,0,0,0.3741,0.3751,0.3839,0.3837,0.3843,0.386,0.3869,0.3874,0.3921,0.3911,0.3915,0.3928,0.3948,0.3964,0.3965,0.3972,0.3975,0.3975,0.3975,0.3976,0.4022,0.4023,0,0,0,0,0,0,0.3732,0.3746,0.3836,0.3842,0.3797,0.3862,0.3872,0.3889,0.3923,0.393,0.3927,0.393,0.3962,0.3964,0.3966,0.3983,0.3975,0.3976,0.3976,0.4021,0.4022,0.4023,0,0,0,0,0,0,0.3729,0.3739,0.3833,0.3797,0.381,0.3863,0.3882,0.3891,0.3922,0.3936,0.3941,0.3951,0.3963,0.3965,0.3979,0.3984,0.3976,0.3977,0.402,0.4021,0.4022,0.4005,0,0,0,0,0,0,0.3725,0.3738,0.3754,0.3796,0.3812,0.3863,0.3882,0.3892,0.3928,0.3933,0.3957,0.396,0.3963,0.3978,0.398,0.3984,0.3977,0.4019,0.402,0.4022,0.4005,0.4006,0.4007,0,0,0,0,0,0.3721,0.373,0.3755,0.3766,0.383,0.3863,0.3872,0.391,0.3929,0.394,0.3959,0.396,0.399,0.3979,0.3981,0.3986,0.4018,0.402,0.4022,0.4004,0.4006,0.4007,0,0,0,0,0,0,0.3681,0.3738,0.3765,0.3792,0.3829,0.3872,0.3893,0.3917,0.3944,0.3952,0.3964,0.3967,0.3987,0.3991,0.3979,0.4007,0.4007,0.4009,0.3993,0.3994,0.3995,0.4002,0.3978,0,0,0,0,0,0.3683,0.3707,0.376,0.3781,0.3806,0.3854,0.3877,0.3902,0.3929,0.3943,0.3955,0.3975,0.3994,0.3997,0.4014,0.4019,0.4046,0.4028,0.4029,0.4029,0.4038,0.4079,0.4084,0.4029,0.4029,0.4029,0,0,0.3671,0.3707,0.372,0.3775,0.3813,0.3835,0.3869,0.3904,0.3918,0.3938,0.3957,0.398,0.4,0.4014,0.4022,0.4015,0.4061,0.4032,0.4032,0.4041,0.4081,0.4087,0.4091,0.403,0.403,0.403,0,0,0.3645,0.3698,0.3709,0.3742,0.3799,0.383,0.3842,0.389,0.3915,0.3934,0.3961,0.3986,0.4002,0.402,0.4032,0.4049,0.4071,0.4057,0.4055,0.4094,0.4099,0.4103,0.4148,0.4157,0.4048,0.4048,0.4048,0,0.363,0.3659,0.3714,0.3733,0.3765,0.3826,0.3844,0.3872,0.3911,0.3937,0.3936,0.4,0.4006,0.4044,0.4046,0.4049,0.4081,0.4043,0.4094,0.4099,0.4104,0.4149,0.4159,0.4047,0.4047,0.4048,0.4048,0,0.361,0.3643,0.3654,0.3702,0.3738,0.3767,0.382,0.3851,0.3888,0.3918,0.3972,0.3992,0.4035,0.4037,0.404,0.4084,0.41,0.4095,0.4087,0.4108,0.4155,0.4166,0.4047,0.4047,0.4047,0.4047,0,0,0.3548,0.3626,0.363,0.366,0.3734,0.3757,0.3797,0.3857,0.3906,0.3929,0.399,0.4007,0.4042,0.406,0.4079,0.41,0.415,0.4107,0.4109,0.4145,0.425,0.4238,0.4248,0.4155,0.4156,0.4158,0.4271,0,0.3522,0.355,0.3599,0.363,0.3662,0.3739,0.3777,0.3837,0.3903,0.397,0.401,0.4074,0.4045,0.4088,0.4098,0.4161,0.4177,0.4121,0.4231,0.4235,0.4215,0.4259,0.3929,0.4,0.4281,0.4283,0.4284,0,0.3485,0.3519,0.3546,0.3631,0.3654,0.3676,0.3788,0.3831,0.3941,0.4004,0.407,0.4124,0.4181,0.4152,0.4234,0.4205,0.422,0.4246,0.4251,0.4253,0.4242,0.4024,0.4008,0.4301,0.43,0.4299,0.4298,0,0.3422,0.3482,0.3509,0.3533,0.3629,0.3662,0.372,0.3835,0.3907,0.4043,0.4119,0.4194,0.4261,0.4288,0.4332,0.4298,0.4425,0.4386,0.4384,0.4384,0.4132,0.4108,0.4425,0.4425,0.4425,0.4424,0.4424,0,0.3382,0.3399,0.348,0.3494,0.3543,0.3626,0.3704,0.3793,0.3934,0.4019,0.4129,0.4219,0.4299,0.4376,0.4381,0.4433,0.4464,0.4404,0.4417,0.4119,0.4094,0.4374,0.4367,0.4428,0.4428,0.4427,0.4426,0,0.3307,0.336,0.339,0.3481,0.3513,0.3547,0.3686,0.3744,0.3903,0.4025,0.4077,0.4266,0.4387,0.4455,0.4544,0.4511,0.4556,0.4552,0.4212,0.4183,0.4474,0.4465,0.4573,0.4573,0.4574,0.4574,0.4575,0,0.3271,0.3279,0.3359,0.3376,0.3414,0.3485,0.3537,0.3706,0.3788,0.4036,0.4085,0.428,0.439,0.4551,0.4545,0.4587,0.4607,0.4287,0.4153,0.449,0.4492,0.4481,0.4472,0.3809,0.3803,0.3798,0.3794,0,0.3198,0.3225,0.3249,0.3291,0.3331,0.338,0.3475,0.3544,0.374,0.3871,0.405,0.4176,0.4365,0.4294,0.4384,0.4345,0.426,0.4194,0.4628,0.3841,0.3784,0.3781,0.3793,0.375,0.3755,0.3758,0.376,0.3762,0.3134,0.3127,0.3158,0.3186,0.3227,0.3252,0.3258,0.3384,0.3504,0.365,0.387,0.3941,0.4033,0.4028,0.3932,0.3854,0.4137,0.3925,0.3933,0.3947,0.3858,0.3806,0.376,0.3764,0.3768,0.3771,0.3774,0,0.3033,0.3037,0.3053,0.307,0.305,0.3122,0.3189,0.3163,0.3239,0.3415,0.3549,0.3348,0.3374,0.3435,0.3279,0.3327,0.3218,0.3171,0.2972,0.3023,0.3066,0.2922,0.2581,0.2577,0.2572,0.2568,0,0,0.2979,0.294,0.2943,0.2879,0.289,0.2822,0.2822,0.2825,0.2901,0.2909,0.2934,0.3225,0.3374,0.2917,0.2895,0.2698,0.2817,0.26,0.3575,0.3394,0.343,0.3546,0.3391,0,0,0,0,0]},{"header":{"parameterUnit":"m.s-1","parameterCategory":2,"la1":30.2991,"la2":30.254,"lo1":-89.0895,"lo2":-89.0444,"dy":0.0017,"dx":0.0017,"nx":28,"ny":28,"refTime":"2025-01-11T09:00:00:Z","depth":"2","parameterNumber":3,"parameterNumberName":"V-component_of_CURRENTS"},"data":[0,0,0,0,0,0,0,0,0,0,0,0,0,0,0,0,0,0,0,0,0,0,0,0,0,0,0,0,0,0,0,0,0,0,0,0,0,0,0,0,0,0,0,0,0,0,0,0,0,0,0,0,0,0,0,0,0,0,0.0202,0.0201,0,0.0086,0.0084,0.0082,-0.0006,-0.0007,-0.0007,-0.0008,-0.0104,-0.0106,-0.0108,0,0,0,0,0,0,0,0,0,0,0,0,0,0.0229,0.0229,0.0202,0.0201,0.02,0.0086,0.0084,0.0082,-0.0006,-0.0007,-0.0007,-0.0008,-0.0103,-0.0106,-0.0108,0,0,0,0,0,0,0,0,0,0,0,0,0,0.0172,0.0229,0.0202,0.0146,0.014,0.0086,0.0084,0.0081,-0.0006,-0.0007,-0.0007,-0.0008,-0.0102,-0.0105,-0.0109,-0.0117,0,0,-0.0119,-0.012,0,0,0,0,0,0,0,0,0.0175,0.017,0.0155,0.0149,0.0143,0.0058,0.0058,0.0018,-0.0006,0.0044,-0.0008,-0.0008,-0.0045,-0.0053,-0.008,-0.0121,-0.0125,-0.0119,-0.0121,-0.0122,-0.0123,0,0,0,0,0,0,0,0.0179,0.0174,0.0151,0.0154,0.0147,0.0086,0.0077,0.0049,0.0002,0.004,0.0034,0.0029,-0.0049,-0.0077,-0.0083,-0.0127,-0.0119,-0.0122,-0.0124,-0.0125,-0.018,-0.0179,0,0,0,0,0,0,0.021,0.0179,0.0155,0.0148,0.0163,0.0087,0.0077,0.0082,0.0001,-0.001,0.003,0.0025,-0.0071,-0.0079,-0.0086,-0.0083,-0.0122,-0.0125,-0.0127,-0.018,-0.0179,-0.0179,0,0,0,0,0,0,0.0211,0.0209,0.016,0.0163,0.0153,0.0088,0.0093,0.008,0.0055,-0.0006,-0.0019,0.002,-0.0072,-0.0082,-0.0107,-0.0088,-0.0127,-0.013,-0.0181,-0.018,-0.0179,-0.0087,0,0,0,0,0,0,0.0213,0.0211,0.0219,0.0166,0.0155,0.0143,0.0094,0.0078,0.0055,0.0048,-0.0018,-0.0029,-0.0073,-0.0101,-0.011,-0.0093,-0.0132,-0.0181,-0.018,-0.0179,-0.009,-0.0083,-0.0076,0,0,0,0,0,0.0214,0.0241,0.022,0.0217,0.017,0.0145,0.0133,0.008,0.0056,0.0053,0.0005,-0.0026,-0.0101,-0.0103,-0.0114,-0.0097,-0.0182,-0.0181,-0.018,-0.0094,-0.0084,-0.0077,0,0,0,0,0,0,0.0259,0.0233,0.0209,0.0226,0.0193,0.0132,0.0127,0.0091,0.0048,0.0044,-0.002,-0.0033,-0.005,-0.0085,-0.0086,-0.0111,-0.0146,-0.0147,-0.0077,-0.0069,-0.0062,-0.0041,-0.0135,0,0,0,0,0,0.0275,0.0284,0.0244,0.0255,0.0246,0.0187,0.0168,0.0136,0.0094,0.0074,0.0027,-0.0019,-0.0054,-0.0069,-0.0108,-0.0116,-0.016,-0.0113,-0.0106,-0.01,-0.009,-0.0142,-0.0138,-0.0175,-0.0175,-0.0175,0,0,0.0293,0.0281,0.0284,0.0265,0.0233,0.0233,0.0173,0.0161,0.0156,0.0074,0.0055,0.0004,-0.0052,-0.0069,-0.0079,-0.0094,-0.0113,-0.0098,-0.0092,-0.0086,-0.014,-0.0137,-0.0133,-0.0174,-0.0174,-0.0175,0,0,0.034,0.0329,0.0349,0.0333,0.0304,0.0272,0.0277,0.0225,0.0197,0.0174,0.0113,0.0076,0.0023,-0.0017,-0.0043,-0.0017,-0.0076,-0.0027,0.0029,-0.0021,-0.0018,-0.0016,-0.0066,-0.007,-0.002,-0.002,-0.002,0,0.0359,0.0384,0.0349,0.0365,0.0363,0.0301,0.0322,0.0287,0.0231,0.0219,0.0185,0.0097,0.0048,0.0025,0.0028,0.0,-0.004,0.0004,-0.0011,-0.001,-0.001,-0.0062,-0.0066,-0.0016,-0.0016,-0.0017,-0.0017,0,0.0417,0.0435,0.045,0.0451,0.0444,0.0455,0.0415,0.0399,0.036,0.0319,0.0281,0.02,0.0151,0.0127,0.0084,0.0067,0.0034,0.0003,-0.0028,-0.0,-0.0057,-0.0064,-0.0009,-0.0011,-0.0012,-0.0013,0,0,0.0465,0.0486,0.049,0.0512,0.0495,0.0501,0.0502,0.0485,0.0493,0.0419,0.0414,0.0332,0.028,0.0247,0.0182,0.0134,0.0095,0.0078,0.0073,0.0036,-0.0017,-0.0041,-0.0052,0.0061,0.006,0.006,-0.0057,0,0.0516,0.0576,0.0568,0.0622,0.0653,0.0613,0.062,0.0596,0.0562,0.054,0.0446,0.0415,0.0329,0.0309,0.0246,0.0135,0.0082,0.013,-0.0045,-0.005,-0.007,-0.0059,-0.0027,-0.0128,-0.0064,-0.0066,-0.0067,0,0.0574,0.0611,0.0676,0.0719,0.0728,0.0744,0.076,0.0764,0.0717,0.0689,0.0633,0.0553,0.0471,0.0394,0.0217,0.0251,0.013,0.0034,0.0027,-0.0031,-0.0087,-0.0148,-0.0144,-0.0079,-0.0078,-0.0077,-0.0076,0,0.0632,0.0689,0.075,0.0763,0.0793,0.0812,0.0826,0.0806,0.0837,0.0789,0.0796,0.0668,0.0618,0.0448,0.0245,0.0231,0.0045,-0.0,-0.0141,-0.0144,-0.0168,-0.0173,-0.0124,-0.0124,-0.0124,-0.0124,-0.0123,0,0.0697,0.0746,0.0783,0.0817,0.0897,0.0887,0.0963,0.0952,0.0961,0.1014,0.0883,0.0888,0.063,0.0488,0.0287,0.0059,0.0073,-0.0127,-0.0173,-0.0136,-0.0135,-0.0134,-0.0133,-0.0128,-0.0127,-0.0126,-0.0126,0,0.0752,0.0771,0.0852,0.0903,0.0929,0.0987,0.1076,0.113,0.1119,0.1183,0.1176,0.1053,0.0871,0.0602,0.0327,0.0131,-0.0095,-0.0181,-0.012,-0.0156,-0.0266,-0.0259,-0.0352,-0.0354,-0.0355,-0.0356,-0.0357,0,0.0784,0.0829,0.0925,0.0988,0.1016,0.1108,0.1175,0.1207,0.1287,0.1296,0.1341,0.1182,0.1108,0.0688,0.0306,-0.0056,-0.0101,-0.027,-0.0295,-0.0252,-0.0288,-0.0279,-0.027,-0.0298,-0.0298,-0.0299,-0.0299,0,0.085,0.0878,0.0947,0.1083,0.1171,0.129,0.1397,0.149,0.1534,0.1584,0.1628,0.1568,0.1163,0.0806,0.0292,0.004,-0.0213,-0.029,-0.0263,-0.0236,-0.0208,-0.0241,-0.0233,-0.0302,-0.0302,-0.0302,-0.0302,-0.0301,0.0894,0.0959,0.1055,0.1188,0.1299,0.1455,0.1584,0.1704,0.1846,0.1941,0.1863,0.1782,0.1348,0.0708,0.025,-0.0246,-0.022,-0.0386,-0.0382,-0.0378,-0.0342,-0.0317,-0.0425,-0.0426,-0.0426,-0.0426,-0.0427,0,0.0949,0.103,0.1158,0.1318,0.146,0.1512,0.1721,0.1855,0.2044,0.2097,0.2134,0.173,0.1306,0.0794,0.0071,-0.0349,-0.039,-0.0494,-0.0439,-0.0432,-0.0427,-0.0392,-0.049,-0.0492,-0.0493,-0.0494,0,0,0.0979,0.1103,0.1177,0.1422,0.1549,0.1763,0.19,0.2084,0.2188,0.2267,0.2212,0.2097,0.1471,0.0947,0.0357,-0.0063,-0.0153,-0.0158,-0.006,0.0082,0.0092,-0.0319,-0.0251,0,0,0,0,0]}],[{"header":{"parameterUnit":"m.s-1","parameterCategory":2,"la1":30.2991,"la2":30.254,"lo1":-89.0895,"lo2":-89.0444,"dy":0.0017,"dx":0.0017,"nx":28,"ny":28,"refTime":"2025-01-11T09:00:00:Z","depth":"4","parameterNumber":2,"parameterNumberName":"U-component_of_CURRENTS"},"data":[0,0,0,0,0,0,0,0,0,0,0,0,0,0,0,0,0,0,0,0,0,0,0,0,0,0,0,0,0,0,0,0,0,0,0,0,0,0,0,0,0,0,0,0,0,0,0,0,0,0,0,0,0,0,0,0,0,0,0.2241,0.2243,0,0.234,0.2341,0.2342,0.2444,0.2446,0.2448,0.2449,0.2576,0.2577,0.2579,0,0,0,0,0,0,0,0,0,0,0,0,0,0.2057,0.206,0.2241,0.2243,0.2244,0.234,0.2341,0.2342,0.2444,0.2446,0.2448,0.245,0.2575,0.2577,0.2579,0,0,0,0,0,0,0,0,0,0,0,0,0,0.2141,0.2061,0.2241,0.2309,0.2317,0.234,0.2341,0.2343,0.2444,0.2446,0.2449,0.2451,0.2574,0.2577,0.258,0.2543,0,0,0.2588,0.2589,0,0,0,0,0,0,0,0,0.2136,0.2147,0.2298,0.2305,0.2313,0.2386,0.2323,0.2412,0.2443,0.2391,0.2449,0.2453,0.2515,0.2523,0.253,0.2549,0.2555,0.2588,0.2589,0.259,0.2591,0,0,0,0,0,0,0,0.2131,0.2143,0.2277,0.2299,0.2309,0.2307,0.2322,0.234,0.2435,0.2396,0.2405,0.2421,0.252,0.2527,0.2534,0.2557,0.2588,0.259,0.2592,0.2593,0.2764,0.2767,0,0,0,0,0,0,0.2128,0.2138,0.2274,0.228,0.2234,0.2309,0.2326,0.2357,0.2435,0.245,0.2419,0.2425,0.2521,0.2531,0.2539,0.2685,0.259,0.2593,0.2594,0.2761,0.2765,0.2768,0,0,0,0,0,0,0.2124,0.2139,0.227,0.2213,0.223,0.231,0.2344,0.2358,0.2421,0.2452,0.2468,0.2475,0.2524,0.2535,0.262,0.2684,0.2594,0.2596,0.2758,0.2762,0.2766,0.2859,0,0,0,0,0,0,0.2118,0.2137,0.2179,0.2214,0.2234,0.2327,0.2342,0.2358,0.2426,0.2437,0.2504,0.2516,0.2527,0.2617,0.2623,0.2686,0.2598,0.2754,0.276,0.2765,0.2852,0.2866,0.2878,0,0,0,0,0,0.2111,0.2146,0.218,0.2198,0.2282,0.2329,0.2339,0.24,0.2426,0.2464,0.2522,0.2517,0.2657,0.2621,0.2628,0.2693,0.2751,0.2758,0.2765,0.2847,0.2864,0.2878,0,0,0,0,0,0,0.2088,0.2161,0.2199,0.2258,0.2313,0.2349,0.2391,0.2423,0.2494,0.2523,0.2545,0.2561,0.2667,0.2662,0.2621,0.2761,0.2706,0.2715,0.2766,0.2782,0.2795,0.2768,0.2601,0,0,0,0,0,0.2101,0.2153,0.2215,0.2268,0.2299,0.2352,0.2386,0.2431,0.2485,0.2522,0.2578,0.2634,0.2687,0.2722,0.277,0.2829,0.2818,0.2879,0.2892,0.2903,0.2888,0.2928,0.2942,0.279,0.279,0.279,0,0,0.2109,0.2154,0.2188,0.2268,0.2314,0.237,0.2381,0.2451,0.2512,0.2521,0.264,0.2688,0.2717,0.2806,0.2851,0.2816,0.295,0.2912,0.2921,0.2899,0.2936,0.2951,0.2964,0.2795,0.2794,0.2793,0,0,0.2132,0.2192,0.2245,0.2294,0.238,0.2411,0.2443,0.2523,0.2581,0.268,0.2714,0.2794,0.288,0.2913,0.2933,0.3037,0.3024,0.3073,0.3108,0.3148,0.316,0.317,0.3203,0.3216,0.307,0.307,0.3071,0,0.2152,0.2215,0.2266,0.2326,0.2372,0.2436,0.2497,0.2554,0.2662,0.2707,0.2742,0.2888,0.2922,0.2999,0.3049,0.3064,0.3084,0.3045,0.3163,0.3172,0.3181,0.3212,0.3224,0.3076,0.3075,0.3075,0.3074,0,0.2202,0.227,0.2301,0.2402,0.2457,0.2517,0.2599,0.2679,0.2756,0.2811,0.2941,0.2999,0.3075,0.3115,0.3114,0.3204,0.3199,0.318,0.3115,0.3201,0.323,0.3241,0.3083,0.3081,0.308,0.3079,0,0,0.2207,0.2318,0.2337,0.2384,0.2502,0.2542,0.2651,0.2745,0.2821,0.2937,0.3031,0.3132,0.3171,0.3195,0.3224,0.3258,0.3353,0.3252,0.3252,0.327,0.3452,0.3254,0.3247,0.3364,0.3366,0.3368,0.3456,0,0.2241,0.2334,0.2394,0.2492,0.254,0.2627,0.2717,0.2816,0.2915,0.3028,0.3093,0.3208,0.3199,0.3267,0.3297,0.3352,0.3383,0.333,0.3377,0.3378,0.3178,0.3252,0.3374,0.3464,0.3466,0.3468,0.3469,0,0.2265,0.2324,0.2418,0.2521,0.2557,0.2637,0.2773,0.2865,0.3013,0.3099,0.3202,0.3272,0.3367,0.3348,0.3444,0.3421,0.3438,0.3458,0.3462,0.324,0.3198,0.3355,0.3488,0.3487,0.3485,0.3484,0.3483,0,0.2199,0.2329,0.2396,0.2437,0.2579,0.2651,0.2742,0.2893,0.2983,0.3161,0.325,0.3359,0.3449,0.3486,0.3534,0.3513,0.3622,0.3592,0.3422,0.341,0.3519,0.3507,0.3636,0.3635,0.3635,0.3635,0.3635,0,0.2169,0.2228,0.2379,0.2414,0.2515,0.2631,0.2759,0.2872,0.3043,0.3137,0.3285,0.3367,0.3492,0.3566,0.3574,0.3529,0.3655,0.3426,0.3413,0.3562,0.3554,0.3528,0.3515,0.3638,0.3638,0.3637,0.3636,0,0.2074,0.2174,0.2257,0.2421,0.2484,0.256,0.2761,0.2836,0.3027,0.316,0.3227,0.3415,0.3507,0.3592,0.3675,0.3567,0.3558,0.3507,0.368,0.3677,0.3311,0.3302,0.3316,0.3309,0.3304,0.3299,0.3295,0,0.2025,0.2061,0.2243,0.2298,0.2384,0.2519,0.2603,0.281,0.2893,0.3147,0.3184,0.3365,0.3454,0.3408,0.3518,0.3523,0.3476,0.3445,0.334,0.3289,0.3277,0.3276,0.3274,0.3287,0.3285,0.3284,0.3283,0,0.1927,0.2014,0.2082,0.22,0.2301,0.2393,0.2536,0.2584,0.2803,0.2997,0.3065,0.3119,0.3216,0.3272,0.3308,0.33,0.3449,0.3387,0.3397,0.3298,0.3254,0.3247,0.3252,0.3264,0.3267,0.3268,0.3269,0,0.186,0.1882,0.1986,0.2069,0.2186,0.2231,0.2327,0.2416,0.2525,0.28,0.2814,0.2998,0.3175,0.3159,0.319,0.3175,0.3116,0.2993,0.3022,0.3044,0.2913,0.2815,0.2675,0,0,0,0,0,0.1774,0.1778,0.1844,0.1919,0.2024,0.2094,0.226,0.2358,0.2572,0.2542,0.2673,0.2746,0.2804,0.291,0.2839,0.3081,0.3135,0.2985,0.301,0.316,0.3181,0.3052,0,0,0,0,0,0,0.1713,0.1765,0.1785,0.1774,0.1797,0.1889,0.1987,0.213,0.2135,0.236,0.2408,0.2572,0.2676,0.2806,0.2781,0.2812,0.2769,0.3109,0.3102,0.3147,0.3167,0.3185,0.3059,0,0,0,0,0]},{"header":{"parameterUnit":"m.s-1","parameterCategory":2,"la1":30.2991,"la2":30.254,"lo1":-89.0895,"lo2":-89.0444,"dy":0.0017,"dx":0.0017,"nx":28,"ny":28,"refTime":"2025-01-11T09:00:00:Z","depth":"4","parameterNumber":3,"parameterNumberName":"V-component_of_CURRENTS"},"data":[0,0,0,0,0,0,0,0,0,0,0,0,0,0,0,0,0,0,0,0,0,0,0,0,0,0,0,0,0,0,0,0,0,0,0,0,0,0,0,0,0,0,0,0,0,0,0,0,0,0,0,0,0,0,0,0,0,0,0.0244,0.0243,0,0.0174,0.0173,0.0172,0.0129,0.0129,0.0129,0.0129,0.007,0.0069,0.0067,0,0,0,0,0,0,0,0,0,0,0,0,0,0.0269,0.0269,0.0244,0.0243,0.0242,0.0174,0.0173,0.0172,0.0129,0.0129,0.0129,0.0129,0.0071,0.0069,0.0067,0,0,0,0,0,0,0,0,0,0,0,0,0,0.0233,0.0269,0.0244,0.0214,0.021,0.0174,0.0173,0.0171,0.0129,0.0129,0.0129,0.0129,0.0071,0.0069,0.0067,0.0056,0,0,0.006,0.0059,0,0,0,0,0,0,0,0,0.0235,0.0232,0.0219,0.0216,0.0212,0.0161,0.016,0.0134,0.0129,0.0159,0.0129,0.0128,0.0103,0.0098,0.0083,0.0054,0.0051,0.006,0.0059,0.0058,0.0057,0,0,0,0,0,0,0,0.0238,0.0235,0.0215,0.0218,0.0214,0.0179,0.0174,0.0154,0.0132,0.0156,0.0153,0.0147,0.0101,0.0085,0.0081,0.005,0.006,0.0058,0.0057,0.0056,0.0003,0.0003,0,0,0,0,0,0,0.0253,0.0237,0.0217,0.0213,0.0225,0.0179,0.0174,0.0176,0.0131,0.0125,0.0147,0.0146,0.0089,0.0084,0.0079,0.0076,0.0058,0.0056,0.0055,0.0003,0.0003,0.0003,0,0,0,0,0,0,0.0254,0.0252,0.022,0.0224,0.0217,0.0179,0.0182,0.0175,0.0164,0.0125,0.0118,0.0145,0.0089,0.0082,0.0065,0.0073,0.0055,0.0053,0.0003,0.0003,0.0003,0.0061,0,0,0,0,0,0,0.0255,0.0253,0.0261,0.0225,0.0218,0.0208,0.0182,0.0174,0.0161,0.0158,0.012,0.0114,0.0088,0.0069,0.0063,0.0069,0.0051,0.0003,0.0003,0.0003,0.0059,0.0063,0.0066,0,0,0,0,0,0.0257,0.027,0.0262,0.0259,0.023,0.0209,0.0202,0.0172,0.0162,0.0161,0.0133,0.0116,0.0063,0.0067,0.006,0.0066,0.0003,0.0003,0.0003,0.0058,0.0062,0.0066,0,0,0,0,0,0,0.0283,0.0266,0.0256,0.0264,0.0242,0.0202,0.0201,0.0179,0.0155,0.0156,0.0117,0.0109,0.0094,0.0071,0.0076,0.0048,0.0029,0.0028,0.0073,0.0077,0.0081,0.0104,0.0049,0,0,0,0,0,0.0294,0.0302,0.0274,0.028,0.0275,0.024,0.0228,0.0209,0.0182,0.0171,0.0143,0.0113,0.0086,0.0077,0.0049,0.004,0.0007,0.0037,0.004,0.0043,0.0056,0.0009,0.001,0.0002,0.0002,0.0002,0,0,0.0305,0.0297,0.0301,0.0287,0.0269,0.027,0.0232,0.0223,0.0221,0.017,0.0161,0.0124,0.0085,0.0069,0.0061,0.0054,0.0026,0.0043,0.0046,0.0058,0.0009,0.001,0.0011,0.0002,0.0002,0.0002,0,0,0.0332,0.0328,0.0342,0.0333,0.0315,0.0295,0.0297,0.0263,0.0247,0.0232,0.0191,0.0161,0.0126,0.0095,0.0077,0.0083,0.0043,0.0073,0.0114,0.0069,0.0069,0.0069,0.0023,0.0018,0.0078,0.0078,0.0078,0,0.0344,0.0364,0.0341,0.0353,0.0355,0.0314,0.033,0.0306,0.0269,0.0262,0.024,0.0175,0.0139,0.0117,0.0116,0.0093,0.006,0.0105,0.0074,0.0074,0.0073,0.0025,0.0019,0.0081,0.0081,0.0081,0.008,0,0.038,0.0397,0.0407,0.0413,0.041,0.0418,0.039,0.038,0.0357,0.0329,0.0299,0.0238,0.0204,0.0179,0.0151,0.0128,0.0104,0.0082,0.0069,0.0078,0.0026,0.0019,0.0085,0.0084,0.0083,0.0083,0,0,0.0405,0.0429,0.0433,0.0457,0.0447,0.0452,0.0453,0.0444,0.0454,0.0397,0.0397,0.0329,0.0293,0.0268,0.0217,0.0173,0.0129,0.0134,0.013,0.0097,0.0028,0.0015,0.0006,0.0103,0.0102,0.0102,-0.0008,0,0.0441,0.0488,0.0486,0.0532,0.0557,0.0535,0.0542,0.0527,0.0504,0.0491,0.0415,0.0394,0.0327,0.0314,0.0257,0.0166,0.0115,0.0161,0.0017,0.0013,0.0008,-0.0001,0.01,-0.0014,-0.0015,-0.0016,-0.0017,0,0.0478,0.0509,0.0564,0.0607,0.0617,0.0635,0.0656,0.066,0.0626,0.0608,0.0564,0.0503,0.0432,0.0374,0.022,0.0253,0.0152,0.007,0.0063,0.0032,-0.0012,-0.0025,-0.003,-0.0029,-0.0028,-0.0027,-0.0027,0,0.0515,0.0566,0.0619,0.0633,0.0666,0.069,0.0708,0.0698,0.0724,0.0689,0.0696,0.059,0.0549,0.0406,0.0236,0.023,0.006,0.0028,-0.0084,-0.0087,-0.0068,-0.0067,-0.0081,-0.0081,-0.0081,-0.008,-0.008,0,0.0554,0.0599,0.0646,0.0676,0.075,0.075,0.0819,0.0816,0.0828,0.0867,0.0768,0.0758,0.0556,0.0432,0.0265,0.0073,0.0079,-0.0075,-0.0114,-0.0043,-0.0038,-0.0074,-0.0071,-0.0085,-0.0084,-0.0083,-0.0082,0,0.0583,0.0611,0.0683,0.0741,0.0772,0.0825,0.0914,0.0957,0.0956,0.1003,0.0999,0.0889,0.0725,0.051,0.0274,0.0126,-0.0065,-0.0136,-0.004,-0.0071,-0.0192,-0.0185,-0.0271,-0.0272,-0.0274,-0.0274,-0.0275,0,0.0599,0.0639,0.074,0.0798,0.0833,0.0921,0.0982,0.102,0.1077,0.1081,0.1104,0.0968,0.0863,0.0529,0.0289,-0.0036,-0.0087,-0.0194,-0.0202,-0.0181,-0.021,-0.0202,-0.0194,-0.0277,-0.0277,-0.0278,-0.0278,0,0.0634,0.0671,0.0732,0.0857,0.0942,0.1046,0.114,0.1192,0.1232,0.1233,0.1193,0.1011,0.0822,0.0542,0.0289,0.0054,-0.013,-0.0207,-0.0207,-0.0215,-0.0189,-0.0215,-0.0206,-0.0282,-0.0281,-0.0281,-0.0281,0,0.0659,0.071,0.0798,0.0908,0.1023,0.1133,0.1184,0.1245,0.1296,0.1295,0.1276,0.1063,0.094,0.0589,0.0358,0.0123,0.0053,-0.0037,-0.0047,-0.0046,0.0044,0.0111,0.0083,0,0,0,0,0,0.0677,0.0739,0.0845,0.0967,0.1082,0.1159,0.1272,0.1311,0.1349,0.1334,0.1312,0.1134,0.0786,0.0638,0.0403,0.0316,0.0,0.0028,-0.011,-0.0303,-0.0298,-0.0233,0,0,0,0,0,0,0.0689,0.0784,0.0842,0.0995,0.1089,0.1225,0.1301,0.1333,0.133,0.1327,0.1154,0.1062,0.0733,0.0926,0.0396,0.0324,0.0199,-0.013,-0.0136,-0.0305,-0.0301,-0.0298,-0.0229,0,0,0,0,0]}]]